Location: Arrodets-la-Barthe
(43.0306°N, 0.2829°E)
Time: 18:48:41
(UTC+00:00)

Orbus 7S? - Pass Details

Date: 24 October 2021
Orbit: 328 x 6409 km, 56.9° (Epoch: 01 November)

Event Time Altitude Azimuth Distance (km) Brightness Sun altitude
Rises 19:03:57 0° 311° (NW) 5,452 9.2 -22.9°
Reaches altitude 10° 19:08:40 10° 313° (NW) 3,547 8.1 -23.8°
Enters shadow 19:16:02 77° 29° (NNE) 722 3.7 -25.1°
